Time,TemperatureF,DewpointF,PressureIn,WindDirection,WindDirectionDegrees,WindSpeedMPH,WindSpeedGustMPH,Humidity,HourlyPrecipIn,Conditions,Clouds,dailyrainin,SoftwareType,DateUTC
2016-02-09 00:05:00,20.0,17.0,-100.00,North,-9999,-999.9,5.0,87,-99.99,,,-99.99,,2016-02-09 05:05:00,
2016-02-09 00:36:00,19.0,16.0,-100.00,North,-9999,-999.9,3.0,87,-99.99,,,-99.99,,2016-02-09 05:36:00,
2016-02-09 00:44:00,19.0,16.0,-100.00,North,-9999,-999.9,3.0,87,-99.99,,,-99.99,,2016-02-09 05:44:00,
2016-02-09 00:56:00,19.0,16.0,-100.00,North,-9999,-999.9,3.0,87,-99.99,,,-99.99,,2016-02-09 05:56:00,
2016-02-09 01:04:00,19.0,16.0,-100.00,North,-9999,-999.9,3.0,87,-99.99,,,-99.99,,2016-02-09 06:04:00,
2016-02-09 01:46:00,20.0,16.0,-100.00,WSW,249,1.0,3.0,84,-99.99,,,-99.99,,2016-02-09 06:46:00,
2016-02-09 01:58:00,20.0,16.0,-100.00,WSW,249,1.0,3.0,84,-99.99,,,-99.99,,2016-02-09 06:58:00,
2016-02-09 02:06:00,20.0,16.0,-100.00,WSW,249,1.0,3.0,84,-99.99,,,-99.99,,2016-02-09 07:06:00,
2016-02-09 02:34:00,19.0,16.0,-100.00,North,-9999,-999.9,2.0,87,-99.99,,,-99.99,,2016-02-09 07:34:00,
2016-02-09 02:45:00,19.0,16.0,-100.00,North,-9999,-999.9,2.0,87,-99.99,,,-99.99,,2016-02-09 07:45:00,
2016-02-09 03:04:00,19.0,16.0,-100.00,North,-9999,-999.9,2.0,87,-99.99,,,-99.99,,2016-02-09 08:04:00,
2016-02-09 03:44:00,19.0,15.0,-100.00,WSW,244,1.0,4.0,84,-99.99,,,-99.99,,2016-02-09 08:44:00,
2016-02-09 03:55:00,19.0,15.0,-100.00,WSW,244,1.0,4.0,84,-99.99,,,-99.99,,2016-02-09 08:55:00,
2016-02-09 04:04:00,19.0,15.0,-100.00,WSW,244,1.0,4.0,84,-99.99,,,-99.99,,2016-02-09 09:04:00,
2016-02-09 04:44:00,19.0,15.0,-100.00,North,-9999,-999.9,4.0,85,-99.99,,,-99.99,,2016-02-09 09:44:00,
2016-02-09 04:54:00,19.0,15.0,-100.00,North,-9999,-999.9,-999.0,85,-99.99,,,-99.99,,2016-02-09 09:54:00,
2016-02-09 05:04:00,19.0,15.0,-100.00,North,-9999,-999.9,4.0,85,-99.99,,,-99.99,,2016-02-09 10:04:00,
2016-02-09 06:34:00,18.0,15.0,-100.00,North,-9999,-999.9,-999.0,86,-99.99,,,-99.99,,2016-02-09 11:34:00,
2016-02-09 06:46:00,18.0,15.0,-100.00,North,-9999,-999.9,-999.0,86,-99.99,,,-99.99,,2016-02-09 11:46:00,
2016-02-09 07:04:00,18.0,15.0,-100.00,North,-9999,-999.9,-999.0,86,-99.99,,,-99.99,,2016-02-09 12:04:00,
2016-02-09 07:34:00,18.0,14.0,-100.00,North,-9999,-999.9,4.0,83,-99.99,,,-99.99,,2016-02-09 12:34:00,
2016-02-09 07:46:00,18.0,14.0,-100.00,North,-9999,-999.9,4.0,83,-99.99,,,-99.99,,2016-02-09 12:46:00,
2016-02-09 07:54:00,18.0,14.0,-100.00,North,-9999,-999.9,4.0,83,-99.99,,,-99.99,,2016-02-09 12:54:00,
2016-02-09 08:04:00,18.0,14.0,-100.00,North,-9999,-999.9,4.0,83,-99.99,,,-99.99,,2016-02-09 13:04:00,
2016-02-09 08:34:00,19.0,13.0,-100.00,SW,235,1.0,5.0,76,-99.99,,,-99.99,,2016-02-09 13:34:00,
2016-02-09 08:45:00,19.0,13.0,-100.00,SW,235,1.0,5.0,76,-99.99,,,-99.99,,2016-02-09 13:45:00,
2016-02-09 08:55:00,19.0,13.0,-100.00,SW,235,1.0,-999.0,76,-99.99,,,-99.99,,2016-02-09 13:55:00,
2016-02-09 09:04:00,19.0,13.0,-100.00,SW,235,1.0,5.0,76,-99.99,,,-99.99,,2016-02-09 14:04:00,
2016-02-09 09:34:00,22.0,11.0,-100.00,WSW,252,1.0,8.0,62,-99.99,,,-99.99,,2016-02-09 14:34:00,
2016-02-09 09:55:00,22.0,11.0,-100.00,WSW,252,1.0,8.0,62,-99.99,,,-99.99,,2016-02-09 14:55:00,
2016-02-09 10:04:00,22.0,11.0,-100.00,WSW,252,1.0,8.0,62,-99.99,,,-99.99,,2016-02-09 15:04:00,
2016-02-09 10:34:00,24.0,14.0,-100.00,North,-9999,-999.9,5.0,65,-99.99,,,-99.99,,2016-02-09 15:34:00,
2016-02-09 10:45:00,24.0,14.0,-100.00,North,-9999,-999.9,5.0,65,-99.99,,,-99.99,,2016-02-09 15:45:00,
2016-02-09 11:06:00,24.0,14.0,-100.00,North,-9999,-999.9,5.0,65,-99.99,,,-99.99,,2016-02-09 16:06:00,
2016-02-09 11:07:00,25.0,13.0,-100.00,NE,50,1.0,5.0,61,-99.99,,,-99.99,,2016-02-09 16:07:00,
2016-02-09 11:38:00,25.0,13.0,-100.00,NE,50,1.0,5.0,61,-99.99,,,-99.99,,2016-02-09 16:38:00,
2016-02-09 11:47:00,25.0,13.0,-100.00,NE,50,1.0,5.0,61,-99.99,,,-99.99,,2016-02-09 16:47:00,
2016-02-09 12:35:00,27.0,13.0,-100.00,WSW,258,1.0,4.0,56,-99.99,,,-99.99,,2016-02-09 17:35:00,
2016-02-09 12:47:00,27.0,13.0,-100.00,WSW,258,1.0,4.0,56,-99.99,,,-99.99,,2016-02-09 17:47:00,
2016-02-09 12:55:00,27.0,13.0,-100.00,WSW,258,1.0,-999.0,56,-99.99,,,-99.99,,2016-02-09 17:55:00,
2016-02-09 13:05:00,27.0,13.0,-100.00,WSW,258,1.0,4.0,56,-99.99,,,-99.99,,2016-02-09 18:05:00,
2016-02-09 13:34:00,30.0,13.0,-100.00,WSW,248,1.0,5.0,49,-99.99,,,-99.99,,2016-02-09 18:34:00,
2016-02-09 13:45:00,30.0,13.0,-100.00,WSW,248,1.0,5.0,49,-99.99,,,-99.99,,2016-02-09 18:45:00,
2016-02-09 14:04:00,30.0,13.0,-100.00,WSW,248,1.0,5.0,49,-99.99,,,-99.99,,2016-02-09 19:04:00,
2016-02-09 14:34:00,32.0,15.0,-100.00,WSW,257,2.0,6.0,49,-99.99,,,-99.99,,2016-02-09 19:34:00,
2016-02-09 14:44:00,32.0,15.0,-100.00,WSW,257,2.0,6.0,49,-99.99,,,-99.99,,2016-02-09 19:44:00,
2016-02-09 14:55:00,32.0,15.0,-100.00,WSW,257,2.0,6.0,49,-99.99,,,-99.99,,2016-02-09 19:55:00,
2016-02-09 15:04:00,32.0,15.0,-100.00,WSW,257,2.0,6.0,49,-99.99,,,-99.99,,2016-02-09 20:04:00,
2016-02-09 15:34:00,30.0,14.0,-100.00,North,-9999,-999.9,4.0,51,-99.99,,,-99.99,,2016-02-09 20:34:00,
2016-02-09 15:55:00,30.0,14.0,-100.00,North,-9999,-999.9,4.0,51,-99.99,,,-99.99,,2016-02-09 20:55:00,
2016-02-09 16:04:00,30.0,14.0,-100.00,North,-9999,-999.9,4.0,51,-99.99,,,-99.99,,2016-02-09 21:04:00,
2016-02-09 16:07:00,29.0,13.0,-100.00,North,-9999,-999.9,3.0,51,-99.99,,,-99.99,,2016-02-09 21:07:00,
2016-02-09 16:35:00,29.0,13.0,-100.00,North,-9999,-999.9,3.0,51,-99.99,,,-99.99,,2016-02-09 21:35:00,
2016-02-09 16:56:00,29.0,13.0,-100.00,North,-9999,-999.9,3.0,51,-99.99,,,-99.99,,2016-02-09 21:56:00,
2016-02-09 17:39:00,22.0,15.0,-100.00,North,-9999,-999.9,2.0,74,-99.99,,,-99.99,,2016-02-09 22:39:00,
2016-02-09 17:58:00,22.0,15.0,-100.00,North,-9999,-999.9,2.0,74,-99.99,,,-99.99,,2016-02-09 22:58:00,
2016-02-09 18:34:00,21.0,15.0,-100.00,North,-9999,-999.9,-999.0,78,-99.99,,,-99.99,,2016-02-09 23:34:00,
2016-02-09 18:55:00,21.0,15.0,-100.00,North,-9999,-999.9,-999.0,78,-99.99,,,-99.99,,2016-02-09 23:55:00,
2016-02-09 19:04:00,21.0,15.0,-100.00,North,-9999,-999.9,-999.0,78,-99.99,,,-99.99,,2016-02-10 00:04:00,
2016-02-09 19:34:00,20.0,15.0,-100.00,North,-9999,-999.9,1.0,81,-99.99,,,-99.99,,2016-02-10 00:34:00,